Regional Weather Roundup
Issued by NWS State College, PA

Home | Current Version | Previous Version | Graphics & Text | Print | Product List | Glossary On
Versions: 1 2 3 4 5 6 7 8 9 10 11 12 13 14 15 16 17 18 19 20 21 22 23 24 25 26 27 28 29 30 31 32 33 34 35 36 37 38 39 40 41 42 43 44 45 46 47 48 49 50
600
ASUS41 KCTP 281810
RWRCTP

REGIONAL WEATHER ROUNDUP
NATIONAL WEATHER SERVICE STATE COLLEGE PA
200 PM EDT SUN MAY 28 2017

Note: "fair" indicates few or no clouds below 12,000 feet with no
significant weather and/or obstructions to visibility.

* = STATION THAT DOES NOT REPORT PRECIPITATION /E.G. RAIN...SNOW...ETC/
    THUNDER OR FOG.

PAZ002>004-007>009-013>016-020>023-029>032-281900-
WESTERN PENNSYLVANIA

CITY           SKY/WX    TMP DP  RH WIND       PRES   REMARKS
ERIE           CLOUDY    71  59  65 NE12      29.77F
MEADVILLE      CLOUDY    76  62  62 VRB5      29.78F
FRANKLIN*      CLOUDY    73  63  68 S10       29.80F
NEW CASTLE     CLOUDY    74  66  76 VRB5      29.78F
BEAVER COUNTY  NOT AVBL
BUTLER*        CLOUDY    75  64  69 S9        29.78F
PITTSBURGH INT CLOUDY    72  66  81 S12       29.78F
PITTSBURGH     CLOUDY    73  63  70 S8        29.78F
INDIANA*       CLOUDY    70  64  83 SE8       29.85F
LATROBE        PTSUNNY   75  66  73 SW12      29.81F
WASHINGTON CO* CLOUDY    72  64  78 SW6       29.81F
$$

PAZ004>006-010>012-017>019-024>028-033>037-041-042-045-046-049>053-281900-
CENTRAL PENNSYLVANIA

CITY           SKY/WX    TMP DP  RH WIND       PRES   REMARKS
BRADFORD       CLOUDY    70  60  70 S9        29.84F
DUBOIS         CLOUDY    66  60  81 SE13      29.83F
CLEARFIELD     CLOUDY    64  61  90 VRB3      29.87F
JOHNSTOWN      CLOUDY    63  61  93 SE10      29.86F
ALTOONA        LGT RAIN  65  62  90 SE8       29.87F
STATE COLLEGE  LGT RAIN  64  59  82 S10       29.89F
WILLIAMSPORT   CLOUDY    73  60  63 VRB3      29.85F
SELINSGROVE    CLOUDY    73  61  65 S10       29.87F
FT INDIANTOWN  CLOUDY    71  63  74 S6        29.88F
CAPITAL CITY   CLOUDY    73  58  59 SE8       29.88F
HARRISBURG     CLOUDY    73  62  68 S6        29.87F
YORK           CLOUDY    72  61  68 SE7       29.87F
$$

PAZ038>040-043-044-047-048-054-055-060>062-067>071-281900-
EASTERN PENNSYLVANIA

CITY           SKY/WX    TMP DP  RH WIND       PRES   REMARKS
SCRANTON       CLOUDY    75  53  46 VRB7      29.88F
MOUNT POCONO   CLOUDY    67  53  61 S14       29.94F
ALLENTOWN      CLOUDY    76  54  46 S9        29.90F
QUAKERTOWN*    CLOUDY    73  57  56 SE6       29.92S
READING        CLOUDY    74  60  61 SE5       29.87F
LANCASTER      CLOUDY    73  63  70 S9        29.88F
COATESVILLE    CLOUDY    72  63  73 VRB6G14   29.91F
POTTSTOWN      CLOUDY    72  57  59 VRB6      29.91F
BLUE BELL      CLOUDY    70  59  68 S6        29.92S
DOYLESTOWN     CLOUDY    71  59  65 S5        29.90F
WILLOW GROVE   NOT AVBL
NORTH PHILA    CLOUDY    74  58  57 SE9       29.92F
PHILADELPHIA   PTSUNNY   74  61  63 S9        29.90F
$$




USA.gov is the U.S. government's official web portal to all federal, state and local government web resources and services.